DW6610 Weather Reports


Display with metric or nautical units.
time (UTC)temp
F
wind
direction
speed
MPH
gust
MPH
rain 1hr
in
rain 24hr
in
rain mn
in
humidity
%
barometer
mb
20260508174049 76 86 3.0 8.0 0.00 0.00 0.00 47 1014.9
20260508173550 76 105 2.0 5.0 0.00 0.00 0.00 48 1015.1
20260508173056 76 53 1.0 5.0 0.00 0.00 0.00 47 1015.1
20260508172553 76 79 1.0 4.0 0.00 0.00 0.00 48 1015.3
20260508172050 75 84 0.0 5.0 0.00 0.00 0.00 48 1015.4
20260508171557 75 273 2.0 5.0 0.00 0.00 0.00 47 1015.5
20260508171056 75 309 2.0 6.0 0.00 0.00 0.00 51 1015.6
20260508170556 74 78 1.0 6.0 0.00 0.00 0.00 50 1015.7
20260508170056 75 317 1.0 7.0 0.00 0.00 0.00 47 1015.8
20260508165549 74 114 1.0 7.0 0.00 0.00 0.00 50 1015.8
20260508165049 74 104 2.0 7.0 0.00 0.00 0.00 50 1016.0
20260508164605 74 89 2.0 7.0 0.00 0.00 0.00 54 1015.9
20260508164049 74 75 1.0 8.0 0.00 0.00 0.00 48 1016.0
20260508163549 74 82 3.0 8.0 0.00 0.00 0.00 50 1016.2
20260508163115 74 136 1.0 8.0 0.00 0.00 0.00 53 1016.3
20260508162550 73 192 2.0 8.0 0.00 0.00 0.00 50 1016.4
20260508162050 74 293 3.0 8.0 0.00 0.00 0.00 47 1016.4
20260508161557 74 49 2.0 6.0 0.00 0.00 0.00 50 1016.5
20260508161050 73 74 1.0 6.0 0.00 0.00 0.00 49 1016.5
20260508160549 73 285 1.0 6.0 0.00 0.00 0.00 49 1016.5
20260508160052 73 43 3.0 6.0 0.00 0.00 0.00 47 1016.6
20260508155551 73 307 1.0 5.0 0.00 0.00 0.00 48 1016.5
20260508155054 72 43 2.0 5.0 0.00 0.00 0.00 49 1016.5
20260508154600 73 86 1.0 5.0 0.00 0.00 0.00 51 1016.7
20260508154050 72 0 2.0 6.0 0.00 0.00 0.00 50 1016.7
20260508153550 71 279 1.0 6.0 0.00 0.00 0.00 53 1016.8
20260508153058 71 76 3.0 6.0 0.00 0.00 0.00 53 1017.0
20260508152551 71 79 2.0 6.0 0.00 0.00 0.00 54 1017.1
20260508152050 71 268 2.0 6.0 0.00 0.00 0.00 53 1017.1
20260508151552 71 87 2.0 7.0 0.00 0.00 0.00 57 1017.1
20260508151050 70 49 2.0 7.0 0.00 0.00 0.00 54 1017.3
20260508150549 70 91 2.0 5.0 0.00 0.00 0.00 56 1017.4
20260508150056 70 25 1.0 5.0 0.00 0.00 0.00 58 1017.3
20260508145550 69 159 1.0 5.0 0.00 0.00 0.00 59 1017.3
20260508145049 69 11 1.0 7.0 0.00 0.00 0.00 61 1017.3
20260508144610 69 74 3.0 7.0 0.00 0.00 0.00 61 1017.4
20260508144050 69 301 2.0 5.0 0.00 0.00 0.00 60 1017.4
20260508143552 68 128 2.0 6.0 0.00 0.00 0.00 62 1017.5
20260508143056 68 41 2.0 6.0 0.00 0.00 0.00 65 1017.6
20260508142552 68 103 2.0 6.0 0.00 0.00 0.00 63 1017.6
20260508142055 68 82 1.0 4.0 0.00 0.00 0.00 62 1017.6
20260508141552 67 260 1.0 5.0 0.00 0.00 0.00 62 1017.6
20260508141050 67 89 1.0 5.0 0.00 0.00 0.00 68 1017.6
20260508140550 67 243 1.0 3.0 0.00 0.00 0.00 67 1017.6
20260508140053 66 84 0.0 3.0 0.00 0.00 0.00 68 1017.5
20260508135550 66 91 0.0 3.0 0.00 0.00 0.00 70 1017.5
20260508135052 65 39 1.0 3.0 0.00 0.00 0.00 72 1017.6
20260508134557 64 26 0.0 5.0 0.00 0.00 0.00 71 1017.6
20260508134050 63 77 1.0 5.0 0.00 0.00 0.00 72 1017.5
20260508133555 63 82 1.0 3.0 0.00 0.00 0.00 72 1017.7
20260508133100 62 82 1.0 3.0 0.00 0.00 0.00 75 1017.9
20260508132549 62 18 1.0 3.0 0.00 0.00 0.00 75 1018.0
20260508132050 61 79 0.0 2.0 0.00 0.00 0.00 78 1018.0
20260508131558 60 59 0.0 2.0 0.00 0.00 0.00 78 1018.0
20260508131050 60 70 0.0 1.0 0.00 0.00 0.00 83 1017.9
20260508130549 58 69 0.0 2.0 0.00 0.00 0.00 85 1017.9
20260508130107 57 69 0.0 3.0 0.00 0.00 0.00 90 1017.9
20260508125552 55 80 0.0 3.0 0.00 0.00 0.00 92 1018.0
20260508125051 53 67 1.0 3.0 0.00 0.00 0.00 95 1018.0
20260508124554 52 57 0.0 2.0 0.00 0.00 0.00 99 1017.9
20260508124051 51 79 0.0 2.0 0.00 0.00 0.00 100 1018.0
20260508123555 50 60 0.0 2.0 0.00 0.00 0.00 100 1017.9
20260508123056 48 0 1.0 2.0 0.00 0.00 0.00 100 1018.0
20260508122551 48 72 0.0 2.0 0.00 0.00 0.00 100 1017.9
20260508122052 47 59 0.0 1.0 0.00 0.00 0.00 100 1018.0
20260508121552 46 116 0.0 1.0 0.00 0.00 0.00 100 1018.0
20260508121051 46 116 0.0 1.0 0.00 0.00 0.00 100 1017.8
20260508120549 46 0 0.0 1.0 0.00 0.00 0.00 100 1017.8
20260508120050 45 0 0.0 1.0 0.00 0.00 0.00 100 1017.8
20260508115552 44 116 0.0 0.0 0.00 0.00 0.00 99 1017.7
20260508115051 44 0 0.0 0.0 0.00 0.00 0.00 99 1017.6
20260508114556 44 0 0.0 0.0 0.00 0.00 0.00 99 1017.6
20260508114051 44 0 0.0 0.0 0.00 0.00 0.00 99 1017.4
20260508113551 44 0 0.0 0.0 0.00 0.00 0.00 99 1017.4
20260508113058 44 0 0.0 0.0 0.00 0.00 0.00 99 1017.3
20260508112551 44 0 0.0 0.0 0.00 0.00 0.00 99 1017.2
20260508112051 44 0 0.0 0.0 0.00 0.00 0.00 99 1017.2
20260508111553 44 0 0.0 0.0 0.00 0.00 0.00 99 1017.0
20260508111052 44 0 0.0 0.0 0.00 0.00 0.00 99 1017.1
20260508110550 44 0 0.0 0.0 0.00 0.00 0.00 99 1017.1
20260508110110 44 0 0.0 0.0 0.00 0.00 0.00 99 1017.1
20260508105552 44 0 0.0 0.0 0.00 0.00 0.00 99 1017.1
20260508105053 44 0 0.0 0.0 0.00 0.00 0.00 99 1017.0
20260508104557 44 0 0.0 0.0 0.00 0.00 0.00 99 1017.0
20260508104049 44 0 0.0 0.0 0.00 0.00 0.00 99 1017.0
20260508103551 44 0 0.0 0.0 0.00 0.00 0.00 99 1017.0
20260508103054 44 0 0.0 0.0 0.00 0.00 0.00 99 1017.2
20260508102550 44 0 0.0 0.0 0.00 0.00 0.00 99 1017.1
20260508102052 44 0 0.0 0.0 0.00 0.00 0.00 99 1017.1
20260508101556 45 0 0.0 0.0 0.00 0.00 0.00 99 1017.2
20260508101052 45 0 0.0 0.0 0.00 0.00 0.00 99 1017.1
20260508100551 45 0 0.0 0.0 0.00 0.00 0.00 99 1017.1
20260508100054 45 0 0.0 0.0 0.00 0.00 0.00 99 1017.1
20260508095552 45 0 0.0 0.0 0.00 0.00 0.00 99 1017.2
20260508095054 45 0 0.0 0.0 0.00 0.00 0.00 99 1017.1
20260508094558 45 0 0.0 0.0 0.00 0.00 0.00 99 1017.1
20260508094051 45 0 0.0 0.0 0.00 0.00 0.00 99 1017.0
20260508093552 45 0 0.0 0.0 0.00 0.00 0.00 99 1017.0
20260508093058 45 0 0.0 0.0 0.00 0.00 0.00 98 1017.1
20260508092552 45 0 0.0 0.0 0.00 0.00 0.00 98 1017.1
20260508092049 46 0 0.0 0.0 0.00 0.00 0.00 99 1017.2
20260508091552 46 0 0.0 0.0 0.00 0.00 0.00 99 1017.0
20260508091051 46 0 0.0 0.0 0.00 0.00 0.00 99 1016.9
20260508090550 46 0 0.0 0.0 0.00 0.00 0.00 99 1016.8
20260508090107 46 0 0.0 0.0 0.00 0.00 0.00 99 1016.9
20260508085551 46 0 0.0 0.0 0.00 0.00 0.00 99 1016.9
20260508085050 46 0 0.0 0.0 0.00 0.00 0.00 99 1016.9
20260508084554 46 0 0.0 0.0 0.00 0.00 0.00 99 1016.7
20260508084052 46 0 0.0 0.0 0.00 0.00 0.00 99 1016.7
20260508083551 46 0 0.0 0.0 0.00 0.00 0.00 99 1016.7
20260508083051 46 0 0.0 0.0 0.00 0.00 0.00 98 1016.7
20260508082550 46 0 0.0 0.0 0.00 0.00 0.00 98 1016.7
20260508082051 46 0 0.0 0.0 0.00 0.00 0.00 98 1016.7
20260508081559 47 0 0.0 0.0 0.00 0.00 0.00 98 1016.7
20260508081051 47 0 0.0 0.0 0.00 0.00 0.00 98 1016.8
20260508080552 47 0 0.0 0.0 0.00 0.00 0.00 98 1016.8
20260508080053 47 0 0.0 0.0 0.00 0.00 0.00 98 1016.8
20260508075552 47 0 0.0 0.0 0.00 0.00 0.00 98 1017.0
20260508075051 47 0 0.0 0.0 0.00 0.00 0.00 98 1016.9
20260508074554 48 0 0.0 0.0 0.00 0.00 0.00 98 1016.9
20260508074052 48 0 0.0 0.0 0.00 0.00 0.00 98 1016.9
20260508073552 48 0 0.0 0.0 0.00 0.00 0.00 98 1016.9
20260508073056 48 0 0.0 0.0 0.00 0.00 0.00 98 1017.0
20260508072552 48 0 0.0 0.0 0.00 0.00 0.00 98 1016.9
20260508072050 48 0 0.0 0.0 0.00 0.00 0.00 98 1017.0
20260508071554 48 0 0.0 0.0 0.00 0.00 0.00 98 1017.1
20260508071052 48 0 0.0 1.0 0.00 0.00 0.00 98 1017.0
20260508070552 48 0 0.0 1.0 0.00 0.00 0.00 98 1017.0
20260508070056 49 0 0.0 1.0 0.00 0.00 0.00 98 1017.1
20260508065555 49 0 0.0 0.0 0.00 0.00 0.00 98 1017.2
20260508065051 49 0 0.0 1.0 0.00 0.00 0.00 98 1017.2
20260508064554 49 0 0.0 1.0 0.00 0.00 0.00 98 1017.4
20260508064051 49 0 0.0 0.0 0.00 0.00 0.00 98 1017.4
20260508063552 49 0 0.0 0.0 0.00 0.00 0.00 98 1017.4
20260508063056 49 0 0.0 0.0 0.00 0.00 0.00 98 1017.4
20260508062551 49 0 0.0 0.0 0.00 0.00 0.00 98 1017.5
20260508062050 49 0 0.0 0.0 0.00 0.00 0.00 97 1017.4
20260508061556 49 0 0.0 0.0 0.00 0.00 0.00 97 1017.4
20260508061050 49 0 0.0 0.0 0.00 0.00 0.00 97 1017.4
20260508060550 50 0 0.0 0.0 0.00 0.00 0.00 97 1017.4
20260508060054 50 0 0.0 0.0 0.00 0.00 0.00 97 1017.4
20260508055550 50 0 0.0 0.0 0.00 0.00 0.00 97 1017.5
20260508055052 50 0 0.0 0.0 0.00 0.00 0.00 97 1017.5
20260508054635 50 0 0.0 0.0 0.00 0.00 0.00 96 1017.4
20260508054051 50 0 0.0 0.0 0.00 0.00 0.00 96 1017.5
20260508053555 50 0 0.0 1.0 0.00 0.00 0.00 96 1017.4
20260508053051 50 0 0.0 1.0 0.00 0.00 0.00 96 1017.4
20260508052555 50 0 0.0 1.0 0.00 0.00 0.00 97 1017.6
20260508052051 50 116 0.0 0.0 0.00 0.00 0.00 96 1017.5
20260508051551 50 0 0.0 0.0 0.00 0.00 0.00 96 1017.6
20260508051051 50 0 0.0 0.0 0.00 0.00 0.00 96 1017.4
20260508050553 51 0 0.0 0.0 0.00 0.00 0.00 96 1017.5
20260508050054 50 0 0.0 0.0 0.00 0.00 0.00 95 1017.6
20260508045551 51 0 0.0 0.0 0.00 0.00 0.00 95 1017.5
20260508045051 51 0 0.0 1.0 0.00 0.00 0.00 95 1017.5
20260508044600 51 0 0.0 1.0 0.00 0.00 0.00 95 1017.6
20260508044050 51 116 0.0 1.0 0.00 0.00 0.00 95 1017.6
20260508043550 51 0 0.0 1.0 0.00 0.00 0.00 95 1017.7
20260508043050 51 0 0.0 0.0 0.00 0.00 0.00 95 1017.8
20260508042550 51 0 0.0 0.0 0.00 0.00 0.00 94 1017.7
20260508042051 51 0 0.0 1.0 0.00 0.00 0.00 95 1017.7
20260508041600 51 0 0.0 1.0 0.00 0.00 0.00 94 1017.7
20260508041052 52 0 0.0 1.0 0.00 0.00 0.00 94 1017.7
20260508040551 52 0 0.0 1.0 0.00 0.00 0.00 94 1017.7
20260508040057 52 116 0.0 1.0 0.00 0.00 0.00 94 1017.7
20260508035551 52 117 0.0 1.0 0.00 0.00 0.00 94 1017.8
20260508035051 52 117 0.0 0.0 0.00 0.00 0.00 94 1017.6
20260508034602 52 0 0.0 0.0 0.00 0.00 0.00 94 1017.5
20260508034051 52 0 0.0 0.0 0.00 0.00 0.00 93 1017.6
20260508033552 52 0 0.0 1.0 0.00 0.00 0.00 93 1017.5
20260508033051 52 0 0.0 1.0 0.00 0.00 0.00 93 1017.6
20260508032556 52 0 0.0 0.0 0.00 0.00 0.00 93 1017.5
20260508032055 53 0 0.0 0.0 0.00 0.00 0.00 92 1017.7
20260508031602 53 0 0.0 0.0 0.00 0.00 0.00 93 1017.8
20260508031053 53 0 0.0 0.0 0.00 0.00 0.00 92 1017.7
20260508030552 53 0 0.0 0.0 0.00 0.00 0.00 92 1017.7
20260508030112 53 0 0.0 0.0 0.00 0.00 0.00 91 1017.6
20260508025551 54 0 0.0 0.0 0.00 0.00 0.00 90 1017.6
20260508025051 54 0 0.0 0.0 0.00 0.00 0.00 90 1017.7
20260508024606 54 0 0.0 0.0 0.00 0.00 0.00 90 1017.6
20260508024051 55 0 0.0 0.0 0.00 0.00 0.00 89 1017.6
20260508023553 55 0 0.0 0.0 0.00 0.00 0.00 88 1017.6
20260508023103 55 0 0.0 0.0 0.00 0.00 0.00 88 1017.4
20260508022551 55 0 0.0 0.0 0.00 0.00 0.00 86 1017.3
20260508022051 55 0 0.0 0.0 0.00 0.00 0.00 86 1017.3
20260508021619 56 0 0.0 0.0 0.00 0.00 0.00 86 1017.2
20260508021055 56 0 0.0 0.0 0.00 0.00 0.00 86 1017.2
20260508020551 56 0 0.0 0.0 0.00 0.00 0.00 84 1017.2
20260508020057 57 0 0.0 0.0 0.00 0.00 0.00 83 1017.1
20260508015552 57 0 0.0 0.0 0.00 0.00 0.00 83 1017.0
20260508015052 57 0 0.0 1.0 0.00 0.00 0.00 82 1017.1
20260508014559 57 0 0.0 1.0 0.00 0.00 0.00 81 1016.8
20260508014052 58 0 0.0 0.0 0.00 0.00 0.00 79 1016.9
20260508013551 58 0 0.0 0.0 0.00 0.00 0.00 78 1016.8
20260508013056 58 0 0.0 0.0 0.00 0.00 0.00 78 1016.7
20260508012551 59 0 0.0 0.0 0.00 0.00 0.00 77 1016.7
20260508012053 59 0 0.0 0.0 0.00 0.00 0.00 76 1016.7
20260508011558 59 0 0.0 0.0 0.00 0.00 0.00 75 1016.7
20260508011054 60 0 0.0 0.0 0.00 0.00 0.00 70 1016.7
20260508010551 60 0 0.0 0.0 0.00 0.00 0.00 68 1016.8
20260508010057 61 0 0.0 0.0 0.00 0.00 0.00 65 1016.6
20260508005553 61 0 0.0 0.0 0.00 0.00 0.00 64 1016.5
20260508005055 62 0 0.0 1.0 0.00 0.00 0.00 61 1016.5
20260508004558 62 0 0.0 1.0 0.00 0.00 0.00 60 1016.5
20260508004052 63 0 0.0 1.0 0.00 0.00 0.00 59 1016.6
20260508003551 63 0 0.0 1.0 0.00 0.00 0.00 59 1016.6
20260508003105 64 0 0.0 1.0 0.00 0.00 0.00 59 1016.7
20260508002549 64 117 0.0 1.0 0.00 0.00 0.00 60 1016.7
20260508002050 65 117 0.0 1.0 0.00 0.00 0.00 57 1016.5
20260508001555 66 124 0.0 2.0 0.00 0.00 0.00 54 1016.4
20260508001052 67 121 0.0 2.0 0.00 0.00 0.00 54 1016.5
20260508000551 68 155 1.0 2.0 0.00 0.00 0.00 53 1016.5
20260508000051 69 97 0.0 2.0 0.00 0.00 0.00 52 1016.4
20260507235552 69 0 1.0 2.0 0.00 0.01 0.00 51 1016.3
20260507235052 69 118 0.0 2.0 0.00 0.01 0.00 53 1016.1
20260507234551 69 101 0.0 2.0 0.00 0.01 0.00 52 1016.1
20260507234056 69 120 0.0 4.0 0.00 0.01 0.00 50 1016.3
20260507233552 69 118 0.0 4.0 0.00 0.01 0.00 53 1016.4
20260507233054 69 100 0.0 3.0 0.00 0.01 0.00 51 1016.4
20260507232552 69 172 1.0 3.0 0.00 0.01 0.00 49 1016.4
20260507232051 69 0 1.0 3.0 0.00 0.01 0.00 50 1016.3
20260507231559 70 103 1.0 3.0 0.00 0.01 0.00 49 1016.2
20260507231051 70 157 1.0 3.0 0.00 0.01 0.00 47 1016.2
20260507230553 71 155 0.0 3.0 0.00 0.01 0.00 47 1016.3
20260507230056 71 89 1.0 4.0 0.00 0.01 0.00 49 1016.3
20260507225554 71 84 1.0 4.0 0.00 0.01 0.00 48 1016.3
20260507225053 71 110 1.0 4.0 0.00 0.01 0.00 47 1016.5
20260507224601 71 96 1.0 4.0 0.00 0.01 0.00 50 1016.4
20260507224052 71 126 1.0 4.0 0.00 0.01 0.00 51 1016.4
20260507223552 71 119 1.0 4.0 0.00 0.01 0.00 46 1016.3
20260507223059 71 127 1.0 4.0 0.00 0.01 0.00 48 1016.3
20260507222555 72 213 0.0 3.0 0.00 0.01 0.00 47 1016.3
20260507222052 72 91 1.0 4.0 0.00 0.01 0.00 50 1016.4
20260507221552 72 117 0.0 4.0 0.00 0.01 0.00 46 1016.4
20260507221052 72 103 1.0 3.0 0.00 0.01 0.00 49 1016.4
20260507220553 72 130 1.0 4.0 0.00 0.01 0.00 46 1016.4
20260507220054 71 127 0.0 6.0 0.00 0.01 0.00 48 1016.4
20260507215557 71 160 1.0 6.0 0.00 0.02 0.00 44 1016.4
20260507215053 71 126 1.0 5.0 0.00 0.02 0.00 48 1016.3
20260507214559 70 116 2.0 5.0 0.00 0.02 0.00 47 1016.3
20260507214053 70 179 1.0 6.0 0.00 0.02 0.00 45 1016.3
20260507213548 71 219 2.0 6.0 0.00 0.02 0.00 49 1016.4
20260507213054 71 108 2.0 6.0 0.00 0.02 0.00 49 1016.2
20260507212550 71 167 2.0 5.0 0.00 0.02 0.00 46 1016.2
20260507212048 71 104 2.0 5.0 0.00 0.02 0.00 51 1016.3
20260507211558 71 94 2.0 6.0 0.00 0.02 0.00 53 1016.3
20260507211048 71 162 2.0 6.0 0.00 0.02 0.00 47 1016.2
20260507210552 70 141 1.0 6.0 0.00 0.02 0.00 52 1016.2
20260507210119 71 167 2.0 6.0 0.00 0.02 0.00 52 1016.3
20260507205552 70 127 1.0 5.0 0.00 0.07 0.00 51 1016.2
20260507205053 70 148 2.0 5.0 0.00 0.07 0.00 48 1016.4
20260507204602 71 108 2.0 5.0 0.00 0.07 0.00 52 1016.4
20260507204055 71 91 1.0 6.0 0.00 0.07 0.00 53 1016.4
20260507203551 71 155 0.0 6.0 0.00 0.07 0.00 49 1016.5
20260507203058 71 78 3.0 6.0 0.00 0.07 0.00 52 1016.6
20260507202552 71 72 1.0 4.0 0.00 0.07 0.00 53 1016.7
20260507202053 71 132 2.0 4.0 0.00 0.07 0.00 50 1016.7
20260507201603 71 150 1.0 3.0 0.00 0.07 0.00 52 1016.7
20260507201051 71 99 0.0 4.0 0.00 0.07 0.00 55 1016.7
20260507200552 70 117 1.0 4.0 0.00 0.07 0.00 50 1016.8
20260507200105 69 93 2.0 6.0 0.00 0.07 0.00 51 1017.0
20260507195556 70 217 3.0 6.0 0.00 0.07 0.00 50 1017.0
20260507195052 70 205 1.0 6.0 0.00 0.07 0.00 49 1016.8
20260507194552 70 105 1.0 8.0 0.00 0.07 0.00 52 1016.7
20260507194055 70 120 2.0 8.0 0.00 0.07 0.00 49 1016.7
20260507193552 70 179 1.0 5.0 0.00 0.07 0.00 52 1016.8
20260507193110 70 115 1.0 4.0 0.00 0.07 0.00 49 1017.0
20260507192553 70 195 1.0 5.0 0.00 0.07 0.00 55 1017.0
20260507192055 71 113 2.0 5.0 0.00 0.07 0.00 51 1017.1
20260507191557 70 125 2.0 7.0 0.00 0.07 0.00 50 1017.1
20260507191051 71 177 3.0 7.0 0.00 0.07 0.00 53 1017.1
20260507190551 70 120 1.0 7.0 0.00 0.07 0.00 55 1017.3
20260507190053 70 94 2.0 5.0 0.00 0.07 0.00 53 1017.4
20260507185551 70 198 2.0 6.0 0.00 0.07 0.00 51 1017.3
20260507185052 70 274 1.0 6.0 0.00 0.07 0.00 54 1017.3
20260507184551 69 116 2.0 7.0 0.00 0.07 0.00 52 1017.4
20260507184055 69 100 2.0 7.0 0.00 0.07 0.00 57 1017.3
20260507183554 69 168 2.0 7.0 0.00 0.07 0.00 53 1017.4
20260507183100 69 82 2.0 7.0 0.00 0.07 0.00 55 1017.4
20260507182552 69 134 1.0 7.0 0.00 0.07 0.00 55 1017.5
20260507182053 69 165 2.0 8.0 0.00 0.07 0.00 50 1017.6
20260507181556 69 78 3.0 8.0 0.00 0.07 0.00 58 1017.5
20260507181052 69 101 2.0 6.0 0.00 0.07 0.00 59 1017.6
20260507180552 68 90 2.0 6.0 0.00 0.07 0.00 52 1017.6
20260507180059 69 188 1.0 4.0 0.00 0.07 0.00 62 1017.6
20260507175559 69 307 1.0 4.0 0.00 0.08 0.00 52 1017.8
20260507175052 68 72 1.0 4.0 0.00 0.08 0.00 60 1017.9
20260507174608 67 139 1.0 6.0 0.00 0.08 0.00 54 1017.9
20260507174054 68 157 2.0 6.0 0.00 0.08 0.00 52 1018.0